Вернуться в каталог

STARLINK-30053

АктивенСвязьVLEO
NORAD 56700·PAYLOAD·🇺🇸 United States

Запущен May 19, 2023 с Cape Canaveral Space Force Station

Loading…

Ближайшие Пролёты (ближайшие 24 часа)

TLE

СвежийSource: CelesTrak SupGP

Эпоха: Sep 15, 2026, 03:09 UTC

1 56700C 23067N   26258.13173611 -.00000201  00000+0 -72873-5 0  2586
2 56700  43.0004 281.2483 0001617 261.0218  45.4978 15.27577462    18

Отслеживайте STARLINK-30053 в реальном времени с AllMySat

Download on the App Store